Regional Weather Roundup
Issued by NWS Sterling, VA

Home | Current Version | Previous Version | Text Only | Print | Product List | Glossary Off
Versions: 1 2 3 4 5 6 7 8 9 10 11 12 13 14 15 16 17 18 19 20 21 22 23 24 25 26 27 28 29 30 31 32 33 34 35 36 37 38 39 40 41 42 43 44 45 46 47 48 49 50

000
ASUS41 KLWX 100710
RWRLWX

REGIONAL WEATHER ROUNDUP
NATIONAL WEATHER SERVICE BALTIMORE MD/WASHINGTON DC
200 AM EST WED FEB 10 2016

Note: "FAIR" indicates few or no clouds below 12,000 feet
with no significant weather and/or obstructions to visibility.
 TC=TEMPERATURE CELSIUS

 * =Non NWS site. Station does not report precipitation (e.g. rain,
    snow, etc.), thunder, or fog.

DCZ001-MDZ009-015-VAZ040>042-051-053>054-100800-
WASHINGTON METRO

CITY           SKY/WX    TMP DP  RH WIND       PRES   REMARKS
WASHINGTON NAT CLOUDY    31  20  63 NW14G24   29.72R WCI  21
DULLES         CLOUDY    29  20  69 NW14      29.70S WCI  18
ANDREWS AFB    MIX PCPN  30  19  62 NW18G24   29.68S WCI  18
FT BELVOIR     CLOUDY    31  20  63 NW12G21   29.72R WCI  21
QUANTICO       CLOUDY    34  20  56 N7        29.73R
COLLEGE PARK*  CLOUDY    32  21  64 W9        29.70R WCI  24
LEESBURG*      CLOUDY    30  27  86 W12G20    29.70S WCI  21
MANASSAS*      CLOUDY    30  23  74 NW9       29.72R WCI  22
GAITHERSBURG*  CLOUDY    27  19  74 W10       29.71S WCI  17

$$

MDZ006>007-011-014-100800-
BALTIMORE METRO

CITY           SKY/WX    TMP DP  RH WIND       PRES   REMARKS
BWI AIRPORT    CLOUDY    29  22  75 W17       29.67S WCI  17
MD SCIENCE CTR   N/A     30  22  72 MISG      29.67S
MARTIN STATE   CLEAR     32  27  80 W16       29.68S WCI  21
ANNAPOLIS      CLOUDY    31  22  69 NW9       29.68S WCI  23
FORT MEADE*    CLOUDY    30  23  74 W10G18    29.71R WCI  21

$$

MDZ012-015-019>023-100800-
MARYLAND EASTERN SHORE

CITY           SKY/WX    TMP DP  RH WIND       PRES   REMARKS
OCEAN CITY     CLOUDY    33  28  81 W5        29.66S
SALISBURY      MOCLDY    32  25  75 W9        29.66S WCI  24
BAY BRIDGE AP*   N/A     32  23  69 NW9G20    29.69R WCI  24
CAMBRIDGE*     CLOUDY    32  23  69 NW9       29.67S WCI  24
EASTON*        CLOUDY    32  26  76 NW14      29.71S WCI  22

$$

MDZ017>025-100800-
SOUTHERN MARYLAND

CITY           SKY/WX    TMP DP  RH WIND       PRES   REMARKS
PATUXENT RIVER CLOUDY    33  20  58 NW14G21   29.70R WCI  23
ST INIGOES     CLOUDY    33  21  61 NW6G16    29.69S
LEONARDTOWN*   CLOUDY    32  21  64 W5        29.71R

$$

MDZ003>005-100800-
NORTH CENTRAL MARYLAND

CITY           SKY/WX    TMP DP  RH WIND       PRES   REMARKS
FREDERICK*     FLURRIES  28  27  93 W8G20     29.71S WCI  20
HAGERSTOWN APT CLOUDY    26  21  81 W8        29.67F WCI  18
WESTMINSTER*   LGT SNOW  25  25 100 W9        29.64S VSB 3/4 WCI  15

$$

MDZ501>502-100800-
WESTERN MARYLAND

CITY           SKY/WX    TMP DP  RH WIND       PRES   REMARKS
OAKLAND*       FOG       16  14  93 W12G18    29.58S VSB 1   WCI   3
CUMBERLAND*    PTCLDY    30  18  59 W3        29.73F

$$

VAZ025>031-100800-
SHENANDOAH VALLEY

CITY           SKY/WX    TMP DP  RH WIND       PRES   REMARKS
WINCHESTER*    CLOUDY    30  18  59 W9        29.69S WCI  22
FRONT ROYAL*   CLOUDY    30  14  51 SW9       29.69S WCI  22
LURAY*         PTSUNNY   28  14  54 SW8G20    29.70S WCI  20
NEW MARKET*    CLOUDY    28  11  49 SW5       29.70S
STAUNTON*      CLOUDY    30  14  50 W6        29.72S
WAYNESBORO*    CLOUDY    24  11  58 W3        29.70S

$$

WVZ021-048>050-054>055-100800-
EASTERN WEST VIRGINIA PANHANDLE

CITY           SKY/WX    TMP DP  RH WIND       PRES   REMARKS
MARTINSBURG    CLOUDY    28  17  63 W9        29.69F WCI  19
PETERSBURG*    MOCLDY    28  12  52 CALM      29.72F

$$

VAZ036>039-050-100800-
CENTRAL FOOTHILLS

CITY           SKY/WX    TMP DP  RH WIND       PRES   REMARKS
CHARLOTTESVILL CLOUDY    30  14  51 VRB5      29.71S
CULPEPER*      CLOUDY    30  18  60 NW8       29.72S WCI  23
ORANGE*        CLOUDY    32  19  59 SW9       29.73S WCI  24
GORDONSVILLE*  CLOUDY    30  18  61 W3        29.71S
WARRENTON*     FLURRIES  31  23  73 W6        29.71R

$$

VAZ055>057-100800-
NORTH AND CENTRAL PIEDMONT

CITY           SKY/WX    TMP DP  RH WIND       PRES   REMARKS
FREDERICKSBRG* CLOUDY    32  22  67 NW8       29.72R WCI  25
STAFFORD*      CLOUDY    32  19  59 W7        29.75S

$$

NCZ024-NYZ072-PAZ021-071-VAZ022-071-100800-
OTHER REGIONAL OBSERVATIONS

CITY           SKY/WX    TMP DP  RH WIND       PRES   REMARKS
NEW YORK CITY  LGT SNOW  33  28  81 CALM      29.61S
PHILADELPHIA   CLOUDY    34  28  79 W9        29.63S WCI  27
PITTSBURGH     LGT SNOW  24  20  84 W13G20    29.68S FOG     WCI  12
ROANOKE        MOCLDY    25  12  58 NW28G36   29.80S WCI   9
RICHMOND       FLURRIES  31  17  56 W10G18    29.73R WCI  22
RALEIGH        PTCLDY    28  13  53 W3        29.83F

$$

ANZ530>537-100800-
MARINE OBSERVATIONS

STATION/POSITION TIME  TEMP    WIND        PRES
                       AIR SEA DIR/SP/G
                 (UTC) (F)     (DEG/KT/KT) (MB)
THOMAS PT LIGHT  NOT AVBL
BALT KEY BRIDGE  0600   32     270/ 15/ 18 1004.7S
COVE POINT       0600   32     330/ 12/ 16 1005.9R
LEWISETTA        0600   35 41  330/  9/ 12 1005.4S
SOLOMONS ISLAND  0600   34 40  310/  6/ 13   N/A
PINEY POINT      0600          330/ 14/ 17   N/A

$$




USA.gov is the U.S. government's official web portal to all federal, state and local government web resources and services.